Tillbaka till svenska Fidonet
English   Information   Debug  
FILM   0/18
FNEWS_PUBLISH   4881
FN_SYSOP   42085
FN_SYSOP_OLD1   71952
FTP_FIDO   0/2
FTSC_PUBLIC   0/13948
FUNNY   0/4886
GENEALOGY.EUR   0/71
GET_INFO   105
GOLDED   0/408
HAM   2342/16616
HOLYSMOKE   0/6791
HOT_SITES   0/1
HTMLEDIT   0/71
HUB203   466
HUB_100   264
HUB_400   39
HUMOR   0/29
IC   0/2851
INTERNET   0/424
INTERUSER   0/3
IP_CONNECT   719
JAMNNTPD   0/233
JAMTLAND   0/47
KATTY_KORNER   0/41
LAN   0/16
LINUX-USER   0/19
LINUXHELP   0/1155
LINUX   0/22287
LINUX_BBS   0/957
mail   18.68
mail_fore_ok   249
MENSA   0/341
MODERATOR   0/102
MONTE   0/992
MOSCOW_OKLAHOMA   0/1245
MUFFIN   0/783
MUSIC   0/321
N203_STAT   938
N203_SYSCHAT   313
NET203   321
NET204   69
NET_DEV   0/10
NORD.ADMIN   0/101
NORD.CHAT   0/2572
NORD.FIDONET   189
NORD.HARDWARE   0/28
NORD.KULTUR   0/114
NORD.PROG   0/32
NORD.SOFTWARE   0/88
NORD.TEKNIK   0/58
NORD   0/453
OCCULT_CHAT   0/93
OS2BBS   0/787
OS2DOSBBS   0/580
OS2HW   0/42
OS2INET   0/37
OS2LAN   0/134
OS2PROG   0/36
OS2REXX   0/113
OS2USER-L   207
OS2   0/4829
OSDEBATE   17401/18996
PASCAL   0/490
PERL   0/457
PHP   0/45
POINTS   0/405
POLITICS   0/29554
POL_INC   6939/14731
PSION   103
R20_ADMIN   1133
R20_AMATORRADIO   0/2
R20_BEST_OF_FIDONET   16
R20_CHAT   0/896
R20_DEPP   0/3
R20_DEV   400
R20_ECHO2   1788
R20_ECHOPRES   0/35
R20_ESTAT   0/719
R20_FIDONETPROG...
...RAM.MYPOINT
  0/2
R20_FIDONETPROGRAM   0/22
R20_FIDONET   0/248
R20_FILEFIND   0/24
R20_FILEFOUND   0/22
R20_HIFI   0/3
R20_INFO2   3680
R20_INTERNET   0/12940
R20_INTRESSE   0/60
R20_INTR_KOM   0/99
R20_KANDIDAT.CHAT   42
R20_KANDIDAT   28
R20_KOM_DEV   112
R20_KONTROLL   0/13360
R20_KORSET   0/18
R20_LOKALTRAFIK   0/24
R20_MODERATOR   0/1852
R20_NC   76
R20_NET200   245
R20_NETWORK.OTH...
...ERNETS
  0/13
R20_OPERATIVSYS...
...TEM.LINUX
  0/44
R20_PROGRAMVAROR   0/1
R20_REC2NEC   534
R20_SFOSM   0/341
R20_SF   0/108
R20_SPRAK.ENGLISH   0/1
R20_SQUISH   107
R20_TEST   2
R20_WORST_OF_FIDONET   20
RAR   0/9
RA_MULTI   106
RA_UTIL   0/162
REGCON.EUR   0/2067
REGCON   0/13
SCIENCE   0/1206
SF   0/239
SHAREWARE_SUPPORT   0/5146
SHAREWRE   0/14
SIMPSONS   0/169
STATS_OLD1   0/2539.065
STATS_OLD2   0/2530
STATS_OLD3   0/2395.095
STATS_OLD4   0/1692.25
SURVIVOR   0/495
SYSOPS_CORNER   0/3
SYSOP   0/84
TAGLINES   0/112
TEAMOS2   0/4530
TECH   0/2617
TEST.444   0/105
TRAPDOOR   0/19
TREK   0/755
TUB   0/290
UFO   0/40
UNIX   0/1316
USA_EURLINK   0/102
USR_MODEMS   0/1
VATICAN   0/2740
VIETNAM_VETS   0/14
VIRUS   0/378
VIRUS_INFO   0/201
VISUAL_BASIC   0/473
WHITEHOUSE   0/5187
WIN2000   0/101
WIN32   0/30
WIN95   0/4291
WIN95_OLD1   0/70272
WINDOWS   0/1517
WWB_SYSOP   0/419
WWB_TECH   0/810
ZCC-PUBLIC   0/1
ZEC   4

 
4DOS   0/134
ABORTION   0/7
ALASKA_CHAT   0/506
ALLFIX_FILE   0/1313
ALLFIX_FILE_OLD1   0/7997
ALT_DOS   0/152
AMATEUR_RADIO   0/1039
AMIGASALE   0/14
AMIGA   0/331
AMIGA_INT   0/1
AMIGA_PROG   0/20
AMIGA_SYSOP   0/26
ANIME   0/15
ARGUS   0/924
ASCII_ART   0/340
ASIAN_LINK   0/651
ASTRONOMY   0/417
AUDIO   0/92
AUTOMOBILE_RACING   0/105
BABYLON5   0/17862
BAG   135
BATPOWER   0/361
BBBS.ENGLISH   0/382
BBSLAW   0/109
BBS_ADS   0/5290
BBS_INTERNET   0/507
BIBLE   0/3563
BINKD   0/1119
BINKLEY   0/215
BLUEWAVE   0/2173
CABLE_MODEMS   0/25
CBM   0/46
CDRECORD   0/66
CDROM   0/20
CLASSIC_COMPUTER   0/378
COMICS   0/15
CONSPRCY   0/899
COOKING   41016
COOKING_OLD1   0/24719
COOKING_OLD2   0/40862
COOKING_OLD3   0/37489
COOKING_OLD4   15339/35496
COOKING_OLD5   9370
C_ECHO   0/189
C_PLUSPLUS   0/31
DIRTY_DOZEN   0/201
DOORGAMES   0/2253
DOS_INTERNET   0/196
duplikat   6102
ECHOLIST   0/18295
EC_SUPPORT   0/318
ELECTRONICS   0/359
ELEKTRONIK.GER   1534
ENET.LINGUISTIC   0/13
ENET.POLITICS   0/4
ENET.SOFT   0/11701
ENET.SYSOP   34252
ENET.TALKS   0/32
ENGLISH_TUTOR   0/2000
EVOLUTION   0/1335
FDECHO   0/217
FDN_ANNOUNCE   0/7068
FIDONEWS   24973
FIDONEWS_OLD1   0/49742
FIDONEWS_OLD2   0/35949
FIDONEWS_OLD3   0/30874
FIDONEWS_OLD4   0/37224
FIDO_SYSOP   12920
FIDO_UTIL   0/180
FILEFIND   0/209
FILEGATE   0/212
Möte HAM, 16616 texter
 lista första sista föregående nästa
Text 2517, 745 rader
Skriven 2008-09-23 21:00:19 av Amsat List (1:323/120.0)
Ärende: [keps]  orb08267.amsa
=============================
[keps]  orb08267.amsa

Return-Path: <keps-bounces@amsat.org>
X-Rcpt: craig.healy@chowda.com
X-UIDL: 1222216905.15062

SB KEPS @ AMSAT  $ORB08267.O
Orbital Elements  08267.OSCAR

HR AMSAT ORBITAL ELEMENTS FOR OSCAR SATELLITES
FROM WA5QGD FORT WORTH,TX September 23, 2008
Send Subscribe/unsubscribe to KEPS at 
http://www.amsat.org/mailman/listinfo/keps
BID: ORB08267.O
TO ALL RADIO AMATEURS BT

Satellite: AO-07
Catalog number: 07530
Epoch time:      08267.61518789
Element set:     285
Inclination:      101.4589 deg
RA of node:       295.7949 deg
Eccentricity:    0.0012148
Arg of perigee:   069.9830 deg
Mean anomaly:     290.2547 deg
Mean motion:   12.53574301 rev/day
Decay rate:       -2.7e-07 rev/day^2
Epoch rev:           54931
Checksum:              332

Satellite: AO-10
Catalog number: 14129
Epoch time:      08265.82276643
Element set:     566
Inclination:      026.0358 deg
RA of node:       194.4628 deg
Eccentricity:    0.5963241
Arg of perigee:   158.9099 deg
Mean anomaly:     242.8700 deg
Mean motion:   02.05869824 rev/day
Decay rate:      -2.61e-06 rev/day^2
Epoch rev:           19009
Checksum:              329

Satellite: UO-11
Catalog number: 14781
Epoch time:      08267.64639417
Element set:     774
Inclination:      098.1465 deg
RA of node:       303.1105 deg
Eccentricity:    0.0009952
Arg of perigee:   113.1368 deg
Mean anomaly:     247.0870 deg
Mean motion:   14.79663759 rev/day
Decay rate:      -1.83e-06 rev/day^2
Epoch rev:           31841
Checksum:              323

Satellite: RS-15
Catalog number: 23439
Epoch time:      08266.92940276
Element set:    0194
Inclination:      064.8214 deg
RA of node:       336.9943 deg
Eccentricity:    0.0146266
Arg of perigee:   103.9780 deg
Mean anomaly:     257.7457 deg
Mean motion:   11.27552502 rev/day
Decay rate:       -3.9e-07 rev/day^2
Epoch rev:           56598
Checksum:              341

Satellite: FO-29
Catalog number: 24278
Epoch time:      08267.55212029
Element set:     864
Inclination:      098.5774 deg
RA of node:       170.9341 deg
Eccentricity:    0.0350367
Arg of perigee:   321.0804 deg
Mean anomaly:     036.5576 deg
Mean motion:   13.52939385 rev/day
Decay rate:       -8.5e-07 rev/day^2
Epoch rev:           59769
Checksum:              349

Satellite: SO-33
Catalog number: 25509
Epoch time:      08266.83844539
Element set:     286
Inclination:      031.4289 deg
RA of node:       124.2066 deg
Eccentricity:    0.0354783
Arg of perigee:   161.0923 deg
Mean anomaly:     200.3216 deg
Mean motion:   14.28226779 rev/day
Decay rate:       1.93e-06 rev/day^2
Epoch rev:           51758
Checksum:              320

Satellite: AO-40
Catalog number: 26609
Epoch time:      08267.51973889
Element set:     123
Inclination:      007.8257 deg
RA of node:       059.1063 deg
Eccentricity:    0.7936186
Arg of perigee:   126.1084 deg
Mean anomaly:     335.1143 deg
Mean motion:   01.25584355 rev/day
Decay rate:      -4.63e-06 rev/day^2
Epoch rev:            3627
Checksum:              321

Satellite: VO-52
Catalog number: 28650
Epoch time:      08266.39521535
Element set:    0037
Inclination:      097.7795 deg
RA of node:       330.2909 deg
Eccentricity:    0.0026991
Arg of perigee:   181.3279 deg
Mean anomaly:     178.7858 deg
Mean motion:   14.81498333 rev/day
Decay rate:      -3.21e-06 rev/day^2
Epoch rev:           18299
Checksum:              355

Satellite: PO-63
Catalog number: 29712
Epoch time:      08267.71487347
Element set:     820
Inclination:      097.8654 deg
RA of node:       324.0081 deg
Eccentricity:    0.0015341
Arg of perigee:   063.0969 deg
Mean anomaly:     297.1801 deg
Mean motion:   14.80272395 rev/day
Decay rate:       4.20e-06 rev/day^2
Epoch rev:            9204
Checksum:              308

/EX
SB KEPS @ AMSAT  $ORB08267.D
Orbital Elements  08267.MICROS

HR AMSAT ORBITAL ELEMENTS FOR THE MICROSATS
FROM WA5QGD FORT WORTH,TX September 23, 2008
Send Subscribe/unsubscribe to KEPS at 
http://www.amsat.org/mailman/listinfo/keps
BID: ORB08267.D
TO ALL RADIO AMATEURS BT

Satellite: AO-16
Catalog number: 20439
Epoch time:      08267.60516736
Element set:     424
Inclination:      098.2427 deg
RA of node:       242.6928 deg
Eccentricity:    0.0009973
Arg of perigee:   243.1895 deg
Mean anomaly:     116.8271 deg
Mean motion:   14.31803134 rev/day
Decay rate:       -4.0e-08 rev/day^2
Epoch rev:           97500
Checksum:              309

Satellite: LO-19
Catalog number: 20442
Epoch time:      08266.51823619
Element set:    0347
Inclination:      098.2114 deg
RA of node:       249.8944 deg
Eccentricity:    0.0011043
Arg of perigee:   242.2041 deg
Mean anomaly:     117.8018 deg
Mean motion:   14.32040757 rev/day
Decay rate:       -3.3e-07 rev/day^2
Epoch rev:           97500
Checksum:              280

Satellite: AO-27
Catalog number: 22825
Epoch time:      08266.51073116
Element set:    0068
Inclination:      098.3965 deg
RA of node:       222.9348 deg
Eccentricity:    0.0008167
Arg of perigee:   340.3816 deg
Mean anomaly:     019.7049 deg
Mean motion:   14.29246903 rev/day
Decay rate:       -1.6e-07 rev/day^2
Epoch rev:           78167
Checksum:              323

Satellite: IO-26
Catalog number: 22826
Epoch time:      08266.47783388
Element set:    0780
Inclination:      098.3888 deg
RA of node:       223.7691 deg
Eccentricity:    0.0008828
Arg of perigee:   336.4598 deg
Mean anomaly:     023.6177 deg
Mean motion:   14.29496505 rev/day
Decay rate:       -2.2e-07 rev/day^2
Epoch rev:           78176
Checksum:              367

